Flag for China Weather past 2 weeks in Hangzhou, Zhejiang, China

Now
79 °F

Clear.


Feels Like: 80 °F
Forecast: 56 / 73 °F
Wind: 3 mph from West

Location: Hangzhou Airport

Current Time: Oct 21, 2014 at 12:08:55 PM

Latest Report: Oct 21, 2014 at 11:30 AM


Visibility: 4 mi

Pressure: 29.98 "Hg

Humidity: 54%

Dew point: 61 °F

Location of HangzhouLocation

Historic Weather in Hangzhou — Graph

°F

Hangzhou temperature yesterday

Maximum temperature yesterday: 88 °F (at 2:00 PM)
Minimum temperature yesterday: 64 °F (at 5:00 AM)
Average temperature yesterday: 75 °F

Past Weeks' High & Low Weather Summary

 TemperatureHumidityPressure
High88 °F (Oct 20, 2:00 PM)88% (Oct 8, 5:00 AM)30.24 "Hg (Oct 8, 5:00 AM)
Low52 °F (Oct 15, 6:00 AM)20% (Oct 15, 1:30 PM)29.89 "Hg (Oct 20, 1:30 PM)
Average69 °F58%30.10 "Hg
* Reported Oct 6 10:00 AM — Oct 21 10:30 AM, Hangzhou, Weather by CustomWeather, © 2014

Note: Actual official high and low records may vary slightly from our data, if they occured in-between our weather recording intervals... More about our weather records

Advertising

Hangzhou weather history for previous 24 hours

 ConditionsComfort  
Time TempWeatherWind HumidityBarometerVisibility
10:30 AM
Oct 21
79 °FScattered clouds.8 mph58%29.98 "Hg2 mi
10:00 AM77 °FHaze.10 mph61%30.01 "Hg2 mi
9:30 AM77 °FHaze.10 mph57%30.01 "Hg2 mi
9:00 AM77 °FClear.6 mph54%30.01 "Hg4 mi
8:30 AM75 °FClear.8 mph61%29.98 "Hg4 mi
8:00 AM73 °FClear.10 mph65%29.98 "Hg4 mi
7:30 AM72 °FSunny.3 mph69%29.95 "Hg10 mi
7:00 AM68 °FClear.3 mph78%29.92 "Hg4 mi
6:30 AM68 °FFog.6 mph73%29.92 "Hg2 mi
6:00 AM68 °FHaze.3 mph73%29.92 "Hg2 mi
5:30 AM66 °FFog.3 mph78%29.89 "Hg3 mi
5:00 AM68 °FFog.3 mph78%29.89 "Hg2 mi
4:30 AM66 °FFog.3 mph78%29.89 "Hg2 mi
4:00 AM68 °FHaze.No wind73%29.89 "Hg2 mi
3:30 AM68 °FHaze.3 mph73%29.89 "Hg3 mi
3:00 AM68 °FHaze.1 mph78%29.89 "Hg3 mi
2:30 AM68 °FHaze.3 mph73%29.89 "Hg3 mi
2:00 AM70 °FHaze.3 mph69%29.92 "Hg3 mi
1:30 AM70 °FHaze.1 mph69%29.92 "Hg3 mi
1:00 AM72 °FHaze.1 mph65%29.92 "Hg3 mi
12:30 AM72 °FHaze.3 mph65%29.92 "Hg3 mi
12:00 AM72 °FHaze.3 mph69%29.92 "Hg2 mi
11:30 PM
Oct 20
72 °FFog.3 mph73%29.92 "Hg2 mi
11:00 PM70 °FFog.1 mph83%29.92 "Hg2 mi
10:30 PM70 °FFog.No wind78%29.92 "Hg2 mi
10:00 PM70 °FHaze.No wind78%29.92 "Hg2 mi
9:30 PM72 °FHaze.1 mph73%29.92 "Hg2 mi
9:00 PM73 °FHaze.1 mph69%29.92 "Hg2 mi
8:30 PM75 °FHaze.3 mph65%29.92 "Hg3 mi
8:00 PM75 °FHaze.1 mph65%29.92 "Hg3 mi
7:30 PM77 °FHaze.3 mph57%29.92 "Hg3 mi
7:00 PM77 °FHaze.6 mph54%29.89 "Hg3 mi
6:30 PM79 °FHaze.6 mph48%29.89 "Hg3 mi
6:00 PM77 °FHaze.3 mph57%29.89 "Hg3 mi
5:30 PM79 °FClear.3 mph54%29.89 "Hg10 mi
5:00 PM81 °FSunny.6 mph51%29.89 "Hg10 mi
4:30 PM86 °FSunny.No wind33%29.89 "Hg10 mi
4:00 PM86 °FSunny.1 mph33%29.89 "Hg10 mi
3:30 PM86 °FSunny.1 mph33%29.89 "Hg10 mi
3:00 PM88 °FSunny.No wind29%29.89 "Hg10 mi
2:30 PM86 °FSunny.1 mph33%29.89 "Hg10 mi
2:00 PM88 °FSunny.1 mph33%29.89 "Hg10 mi
1:30 PM86 °FPassing clouds.3 mph33%29.89 "HgN/A
1:00 PM86 °FPassing clouds.3 mph31%29.92 "HgN/A
Weather by CustomWeather, © 2014

See weather overviewHow to use our weather pages